YUNHAI-2 5 (43913 NORAD) Tracking and Keplerian Element Data

This shows tracking and keplerian element data for the satellite.

Feedback or suggestion? Click here.




ElementValue
Catalog43913
NameYUNHAI-2 5
Epoch Orbit394
Epoch Day27.6655673
Epoch Year2019
RAAN77.3892
Inclination50.0106
Eccentricity0.0005285
Argument of Perigee336.2843
Mean Anonmoly23.7789
Mean Motion13.439666
Decay Rate-9E-07
L11 43913U 18112E 19027.66556730 -.00000090 00000-0 66930-4 0 9998
L22 43913 50.0106 77.3892 0005285 336.2843 23.7789 13.43966600 3949

Live tracking and technical data element details for YUNHAI-2 5 (NORAD 43913). YUNHAI-2 5 can be tracked NOW for your location showing map with azimuth and elevation plus other details from your city location.

Track the satellite on the map from your city or location and see movement details for azimuth, elevation, latitude, longitude, range, height, and movement on the map or in text.







IsCatalogInMostPopularTable: catalog: 43913, numindb: 110
Update: records affected: 1



GetName: 43913 YUNHAI-2 5

Hit Count: updated at: Thu, 23 May 2019 14:53:14 GMT